SCP
0 0 0 0 0 0 0 0 0 0 0 0 0 0 0 -0 0 0 0 0 0 0 0 0 0 0 0 0 0 0 0 0 0 0 0 0 0 0 0 0 0 0 0 0 0 0 0 0 0 0 0 0 0 0
0 0 0 0 0 0 0 0 0 0 0 0 0 0 0 0 0 0 0 0 0 0 0 0 0 0 0 0 0 0 0 0 0 0 0 0 0 0 0 0 0 0 0 0 0 0 0 0 0 0 0 0 0 0
0 0 0 0 0 0 0 0 0 0 0 0 0 0 0 0 0 0 0 0 0 0 0 0 0 0 0 0 0 0 0 0 0 0 0 0 0 0 0 0 0 0 0 0 0 0 0 0 0 0 0 0 0 0
0 0 0 0 0 0 0 0 0 0 0 0 0 0 0 0 0 0 0 0 0 0 0 0 0 0 0 0 0 0 0 0 0 0 0 0 0 0 0 0 0 0 0 0 0 0 0 0 0 0 0 0 0 0
0 0 0 0 0 0 0 0 0 0 0 0 0 0 0 0 0 0 0 0 0 0 0 0 0 0 0 0 0 0 0 0 0 0 0 0 0 0 0 0 0 0 0 0 0 0 0 0 0 0 0 0 0 0
0 0 0 0 0 0 0 0 0 0 0 0 0 0 0 0 0 0 0 0 0 0 0 0 0 0 0 0 0 0 0 0 0 0 0 0 0 0 0 0 0 0 0 0 0 0 0 0 0 0 0 0 0 0
0 0 0 0 0 0 0 0 0 0 0 0 0 0 0 0 0 0 0 0 0 0 0 0 0 0 0 0 0 0 0 0 0 0 0 0 0 0 0 0 0 0 0 0 0 0 0 0 0 0 0 0 0 0
0 0 0 0 0 0 0 0 0 0 0 0 0 0 0 0 0 0 0 0 0 0 0 0 0 0 0 0 0 0 0 0 0 0 0 0 0 0 0 0 0 0 0 0 0 0 0 0 0 0 0 0 0 0
0 0 0 0 0 0 0 0 0 0 0 0 0 0 0 0 0 0 0 0 0 0 0 0 0 0 0 0 0 0 0 0 0 0 0 0 0 0 0 0 0 0 0 0 0 0 0 0 0 0 0 0 0 0
0 0 0 0 0 0 0 0 0 0 0 0 0 0 0 0 0 0 0 0 0 0 0 0 0 0 0 0 0 0 0 0 0 0 0 0 0 0 0 0 0 0 0 0 0 0 0 0 0 0 0 0 0 0
0 0 0 0 0 0 0 0 0 0 0 0 0 0 0 0 0 0 0 0 0 0 0 0 0 0 0 0 0 0 0 0 0 0 0 0 0 0 0 0 0 0 0 0 0 0 0 0 0 0 0 0 0 0
0 0 0 0 0 0 0 0 0 0 0 0 0 0 0 0 0 0 0 0 0 0 0 0 0 0 0 0 0 0 0 0 0 0 0 0 0 0 0 0 0 0 0 0 0 0 0 0 0 0 0 0 0 0
0 0 0 0 0 0 0 0 0 0 0 0 0 0 0 0 0 0 0 0 0 0 0 0 0 0 0 0 0 0 0 0 0 0 0 0 0 0 0 0 -0 0 0 0 0 0 0 0 0 0 0 0 0 0
0 0 0 0 0 0 0 0 0 0 0 0 0 0 0 0 0 0 0 0 0 0 0 0 0 0 0 0 0 0 0 0 0 0 0 0 0 0 0 -0 0 0 0 0 0 0 0 0 0 0 0 0 0 0
0 0 0 0 0 0 0 0 0 0 0 0 0 0 0 0 0 0 0 0 0 0 0 0 0 0 0 0 0 0 0 0 0 0 0 0 0 0 -0 0 0 0 0 0 0 0 0 0 0 0 0 0 0 0
0 0 0 0 0 0 0 0 0 0 0 0 0 0 0 0 0 0 0 0 0 0 0 0 0 0 0 0 0 0 0 0 0 0 0 0 -0 -0 0 0 0 0 0 0 0 0 -0 -0 0 0 0 0 0 0
0 0 0 0 0 0 0 0 0 0 0 0 0 0 0 0 0 0 0 0 0 0 0 0 0 0 0 0 0 0 0 0 0 0 0 -0 -0 0 0 0 0 0 0 0 0 0 -0 -0 0 0 0 0 0 0
0 0 0 0 0 0 0 0 0 0 0 0 0 0 0 0 0 0 0 0 0 0 0 0 0 0 0 0 0 0 0 0 0 -0 -0 -0 0 0 0 0 0 0 0 0 0 -0 -0 0 -0 -0 0 0 0 0
0 0 0 0 0 0 0 0 0 0 0 0 0 0 0 0 0 0 0 0 0 0 0 0 0 0 0 0 0 0 0 0 0 0 -0 0 0 0 0 0 0 0 0 0 0 -0 -0 -0 -0 -0 -0 0 -0 0
0 0 0 0 0 0 0 0 0 0 0 0 0 0 0 0 0 0 0 0 0 0 0 0 0 0 0 0 0 0 0 0 0 0 0 0 0 0 0 0 0 0 0 0 0 -0 0 -0 -0 0 -0 -0 -0 0
0 0 0 0 0 0 0 0 0 0 0 0 0 0 0 0 0 0 0 0 0 0 0 0 0 0 0 0 0 0 0 0 0 0 0 0 0 0 0 0 0 0 0 0 0 0 0 -0 -0 -0 -0 -0 -0 -0
0 0 0 0 0 0 0 0 0 0 0 0 0 0 0 0 0 0 0 0 0 0 0 0 0 0 0 0 0 0 0 0 0 0 0 0 0 0 0 0 0 0 -0 0 0 0 0 -0 -0 -0 -0 -0 0 0
0 0 0 0 0 0 0 0 0 0 0 0 0 0 0 0 0 0 0 0 0 0 0 0 0 0 0 0 0 0 0 0 0 0 0 0 0 0 0 0 0 -0 0 0 0 -0 -0 -0 -0 -0 -0 0 0 0
0 0 0 0 0 0 0 0 0 0 0 0 0 0 0 0 0 0 0 0 0 0 0 0 0 0 0 0 0 0 0 0 0 0 0 -0 0 0 0 0 0 -0 0 -0 -0 -0 -0 -0 -0 -0 -0 -0 -0 -0
0 0 0 0 0 0 0 0 0 0 0 0 0 0 0 0 0 0 0 0 0 0 0 0 0 0 0 0 0 0 0 0 0 0 0 0 0 0 -0 0 -0 0 -0 -0 0 -0 -0 -0 -0 -0 -0 -0 -0 -0
0 0 0 0 0 0 0 0 0 0 0 0 0 0 0 0 0 0 0 0 0 0 0 0 0 0 0 0 0 0 0 0 0 0 0 0 0 0 -0 0 0 0 -0 -0 -0 0 0 0 0 0 0 0 0 0
0 0 0 0 0 0 0 0 0 0 0 0 0 0 0 0 0 0 0 0 0 0 0 0 0 0 0 0 0 0 0 0 0 0 0 0 0 -0 -0 0 0 -0 -0 0 0 0 0 0 0 0 0 0 0 0
0 0 0 0 0 0 0 0 0 0 0 0 0 0 0 0 0 0 0 0 0 0 0 0 0 0 0 0 0 0 0 0 0 0 0 0 -0 -0 -0 -0 -0 -0 -0 -0 0 0 0 0 0 0 0 0 0 0
0 0 0 0 0 0 0 0 0 0 0 0 0 0 0 0 0 0 0 0 0 0 0 0 0 0 0 0 0 0 0 0 0 -0 -0 -0 -0 -0 -0 -0 -0 -0 -0 -0 -0 0 0 0 0 0 -0 0 0 -0
0 0 0 0 0 0 0 0 0 0 0 0 0 0 0 0 0 0 0 0 0 0 0 0 0 0 0 0 0 0 0 -0 -0 0 -0 0 -0 -0 -0 -0 -0 -0 0 0 0 0 0 0 0 0 -0 -0 -0 0
0 0 0 0 0 0 0 0 0 0 0 0 0 0 0 0 0 0 0 0 0 0 0 0 0 0 0 0 0 0 0 0 -0 -0 -0 -0 -0 -0 -0 -0 -0 0 0 0 0 0 0 0 0 0 0 -0 0 0
0 0 0 0 0 0 0 0 0 0 0 0 0 0 0 0 0 0 0 0 0 0 0 0 0 0 0 0 0 0 0 0 0 0 0 0 0 -0 0 0 0 0 0 -0 0 0 0 0 0 0 0 -0 -0 0
0 0 0 0 0 0 0 0 0 0 0 0 0 0 0 0 0 0 0 0 0 0 0 0 0 0 0 0 0 0 0 0 0 0 0 0 0 -0 -0 0 0 0 -0 0 0 0 0 0 0 0 0 0 0 0
Wind_Speed_500mb
42 36 32 30 30 25 22 21 20 24 21 15 15 16 18 18 18 15 10 16 1 3 5 7 7 5 5 3 3 4 5 2 4 4 4 5 5 4 4 1 1 1 3 4 3 6 10 6 4 5 12 8 8 15
36 29 28 28 25 23 21 21 22 22 20 13 12 13 13 16 17 12 12 17 7 4 5 10 10 10 11 9 4 3 2 3 4 6 3 5 5 5 2 5 2 5 3 3 7 4 2 2 6 10 11 18 25 26
30 21 21 19 19 19 19 22 23 21 20 13 12 10 10 13 17 10 14 12 8 6 9 12 11 13 12 8 4 2 4 7 6 7 8 4 3 3 5 3 3 4 3 3 5 3 9 12 12 11 17 25 34 40
20 11 16 21 21 21 19 22 19 19 19 14 12 9 6 9 12 5 10 22 7 6 4 6 13 11 9 10 7 3 8 14 16 10 7 4 2 3 2 4 3 5 6 1 7 12 16 20 18 17 29 38 44 50
18 24 26 26 24 25 25 22 19 20 18 16 13 9 6 4 6 3 2 9 15 4 1 8 13 10 10 11 11 16 14 16 9 6 4 4 5 4 4 2 4 6 2 7 10 20 16 27 30 31 43 53 56 58
23 24 30 33 31 31 31 29 24 23 21 18 15 10 8 4 3 2 1 1 10 9 1 6 8 16 15 12 13 16 17 15 10 6 7 6 5 1 2 2 1 2 4 10 11 20 28 41 51 53 45 55 61 63
23 24 25 35 36 33 25 31 32 30 23 19 17 11 9 7 5 4 4 2 7 8 1 4 7 10 19 12 9 8 9 10 8 6 5 5 4 2 1 3 3 7 17 18 22 29 34 31 47 58 60 63 60 60
22 23 23 20 19 23 26 28 25 27 24 19 17 12 9 7 7 6 9 6 6 2 1 3 4 8 14 7 5 5 5 5 7 5 5 4 5 0 5 9 12 14 17 21 24 29 38 50 57 57 56 58 61 64
21 22 21 18 18 23 26 23 20 19 20 17 14 10 7 8 8 9 10 7 7 5 2 3 8 7 11 6 7 5 5 4 2 3 4 1 3 6 6 9 8 12 17 29 42 46 46 46 55 58 60 61 63 70
18 19 17 17 16 16 17 17 14 16 17 17 15 9 8 11 13 8 4 3 5 6 7 5 6 6 9 6 5 4 5 3 3 4 1 2 4 11 12 11 17 21 28 37 38 45 52 53 54 56 57 57 60 64
17 18 17 16 15 13 16 14 18 20 20 18 12 8 12 16 8 5 4 4 4 5 9 6 12 8 6 4 6 4 5 2 5 4 3 3 3 6 1 12 19 25 33 41 39 44 41 44 51 58 63 65 68 69
15 14 14 14 12 11 14 22 26 25 20 19 11 14 13 7 4 5 4 3 7 5 10 10 10 6 8 7 7 4 4 3 3 4 4 3 4 7 9 21 29 34 40 42 40 43 48 47 45 51 59 66 67 67
15 12 11 11 12 12 17 28 29 29 22 17 8 8 6 6 4 9 13 6 5 13 15 14 10 8 8 7 10 4 5 3 7 4 3 5 5 6 13 25 33 38 38 38 37 42 41 49 57 59 62 62 62 65
14 13 10 10 10 11 23 30 32 30 12 7 7 1 7 7 7 8 6 3 3 9 27 24 12 5 6 5 4 5 4 6 5 5 4 1 5 15 24 25 33 37 37 32 38 37 44 52 53 59 62 60 57 55
14 12 11 9 9 15 30 32 34 27 7 4 5 6 8 6 9 7 8 7 4 17 33 19 13 7 5 6 2 6 7 6 5 4 2 3 11 24 24 28 32 32 28 30 33 37 49 51 55 57 53 52 49 54
12 9 5 12 17 29 30 29 32 12 5 4 5 4 7 6 4 3 8 12 16 31 27 10 7 5 4 6 7 6 8 6 6 4 4 10 18 19 24 27 28 23 22 25 32 40 45 47 52 51 47 48 50 48
8 7 1 13 36 38 35 29 18 5 5 5 6 11 11 12 11 6 4 5 27 28 11 7 7 4 9 5 6 5 5 7 8 7 5 13 20 20 22 25 19 18 17 24 30 38 42 46 54 57 58 54 50 47
12 9 6 40 43 40 24 10 8 10 7 8 5 1 4 9 11 5 2 17 25 20 14 5 13 6 7 9 5 7 10 12 7 2 6 15 14 16 19 15 15 13 15 22 29 34 38 48 61 61 56 57 60 60
18 14 38 42 42 14 9 11 5 5 6 4 6 7 5 7 3 7 12 16 17 19 12 6 6 4 5 6 10 17 18 12 4 4 10 8 12 15 9 11 11 15 18 25 28 34 36 39 41 44 53 57 58 62
20 32 44 47 18 6 5 5 8 2 0 2 3 4 3 3 5 8 14 10 14 11 9 2 4 8 12 21 18 14 12 8 2 5 2 4 10 9 9 8 12 15 17 23 26 30 35 35 36 37 40 45 50 57
24 37 41 41 2 5 6 6 4 3 1 1 2 3 2 3 3 7 9 12 7 4 2 4 13 24 19 11 9 12 16 11 6 7 3 3 7 6 8 11 11 15 18 23 26 28 34 37 38 38 43 49 53 57
29 32 30 11 4 3 4 4 4 4 1 2 2 1 2 5 5 9 10 5 7 15 12 11 13 12 13 12 10 11 13 8 10 7 5 4 3 4 12 14 16 20 25 31 32 34 35 34 39 42 44 49 54 60
28 15 9 5 5 3 3 9 2 3 1 1 1 2 4 5 9 16 6 11 12 22 27 27 26 24 18 13 16 15 9 8 6 7 7 9 9 14 17 22 20 26 33 35 36 38 42 44 46 48 48 51 55 59
26 6 4 4 1 3 7 5 5 1 2 3 4 3 5 7 10 11 7 12 23 21 18 26 25 23 22 22 22 15 14 11 11 10 13 12 16 18 20 23 24 28 32 33 34 35 36 38 40 42 43 42 41 44
9 4 3 2 5 4 3 6 7 5 4 3 3 5 7 11 8 7 7 12 33 33 25 25 27 26 28 30 23 20 17 10 12 9 20 19 20 27 28 28 30 29 26 23 24 25 25 25 26 28 30 31 31 31
6 8 9 7 5 2 3 3 7 7 4 4 6 8 5 2 2 8 7 21 31 35 27 34 34 27 26 24 18 22 20 18 19 16 22 20 24 31 38 35 30 24 20 15 10 8 8 10 12 15 18 22 24 22
4 4 5 5 3 2 5 6 3 5 2 4 3 5 7 9 9 3 3 7 15 25 24 25 31 29 23 21 21 22 21 17 15 16 23 27 27 34 33 28 22 16 11 4 2 7 10 10 7 9 15 20 19 26
3 8 7 13 7 5 6 4 6 6 5 13 7 8 5 4 1 2 0 7 13 24 27 29 27 22 21 25 24 23 17 11 17 23 29 37 37 33 24 17 11 10 11 11 12 12 12 13 10 10 13 14 16 25
5 6 11 8 7 8 6 4 4 10 10 6 3 2 1 3 6 5 3 8 17 26 31 32 29 29 33 34 27 22 20 20 29 33 36 31 34 28 21 12 14 3 5 11 6 3 6 8 9 11 15 16 19 16
6 17 10 13 7 9 16 14 10 15 7 3 1 3 6 9 10 21 27 17 19 24 28 31 33 33 30 27 21 16 18 21 28 25 37 32 27 21 15 18 12 9 5 9 9 7 8 3 9 10 9 13 14 14
8 16 5 9 4 3 7 9 15 8 3 1 5 10 9 8 16 9 19 10 1 20 32 31 32 27 22 16 11 6 13 20 30 32 28 26 20 16 11 10 11 10 4 5 8 10 8 4 6 6 3 4 10 15
19 13 6 3 3 7 10 4 3 1 1 1 1 4 5 5 7 6 18 13 9 22 25 21 23 25 22 14 9 11 12 29 34 34 28 19 13 11 12 1 20 17 7 5 10 10 11 8 5 7 2 4 9 19
8 8 5 2 3 4 7 3 1 1 1 1 2 4 3 3 5 8 26 21 16 19 19 17 17 21 23 15 14 17 16 19 23 21 17 21 28 27 25 23 17 25 18 5 7 3 6 9 13 10 6 9 14 21
Wind_Direction_500mb
288 286 275 272 275 272 270 277 288 307 311 311 334 350 357 359 0 3 354 4 55 87 99 91 84 103 107 86 170 139 161 111 91 125 187 157 203 120 185 113 233 264 229 185 167 246 255 31 118 305 349 296 259 294
282 280 267 263 266 264 266 271 277 296 305 287 314 341 352 1 1 6 360 355 168 139 122 115 111 95 83 73 104 129 85 109 141 112 171 142 161 176 178 195 145 219 303 347 246 359 17 334 56 343 309 286 286 283
277 272 255 260 263 266 268 270 269 281 300 271 291 322 339 355 4 15 19 17 140 120 118 118 113 101 91 73 50 187 178 150 134 129 132 106 150 190 188 190 204 154 157 269 279 142 250 250 261 288 320 295 297 293
268 244 240 252 261 264 270 275 271 270 293 258 269 295 319 345 6 39 34 33 101 129 137 160 138 114 90 54 34 161 181 141 128 99 83 92 100 214 121 62 283 29 177 221 266 271 293 276 254 286 303 302 297 295
272 237 236 249 260 261 268 272 264 265 280 258 252 269 283 313 349 9 0 27 41 119 127 143 146 130 108 84 87 100 121 131 112 91 81 87 97 161 89 205 228 188 101 290 302 307 278 279 283 299 301 302 301 298
278 255 250 247 253 259 263 267 258 255 266 253 238 245 263 246 284 344 341 285 19 30 76 158 155 153 140 119 113 105 105 102 99 93 90 96 104 353 194 238 93 236 316 283 286 306 289 290 299 305 300 302 303 299
277 285 268 253 250 255 261 260 257 248 254 239 229 229 248 239 222 196 163 171 348 5 54 122 137 156 165 153 139 111 93 86 75 93 77 102 113 42 134 245 201 308 323 325 332 322 308 309 303 307 307 306 306 300
269 279 284 281 262 245 247 257 259 253 238 229 215 223 229 226 226 202 199 205 310 345 100 148 121 150 165 151 118 135 123 113 55 87 93 91 129 194 227 239 275 308 322 323 322 313 301 310 312 310 310 310 308 306
267 274 280 277 269 250 250 255 252 238 218 209 197 200 193 178 172 186 191 253 258 204 198 202 173 164 153 109 108 85 108 106 82 108 87 247 147 222 214 239 284 324 319 314 321 321 320 316 314 317 318 316 312 308
264 276 276 274 271 261 239 237 226 199 191 179 170 162 174 175 163 179 230 200 190 205 211 230 166 141 148 133 97 131 51 78 172 76 105 257 256 262 253 288 308 310 316 325 323 324 322 320 322 319 315 310 312 312
256 273 276 270 267 257 226 210 174 161 162 160 161 158 157 158 173 183 192 201 185 219 204 199 188 135 141 140 112 47 112 94 193 119 266 193 242 240 140 335 332 330 327 328 324 323 323 319 320 320 326 331 327 324
248 264 269 260 258 250 209 178 164 161 155 162 146 129 147 170 167 198 195 180 218 219 180 166 163 131 123 109 108 92 109 182 159 143 222 213 255 259 309 332 336 339 335 333 337 335 334 333 331 330 333 333 332 330
234 248 262 257 242 237 188 172 168 154 147 145 157 154 159 164 150 203 183 192 214 175 167 158 138 130 109 101 85 142 152 138 136 193 224 234 271 332 334 333 335 341 342 345 343 346 350 345 350 349 344 343 341 340
234 239 250 254 230 207 173 169 163 157 154 152 160 65 206 182 231 201 202 166 154 168 156 148 115 112 106 94 118 141 94 169 172 200 205 199 297 325 332 335 338 342 348 350 352 355 353 352 351 1 359 355 352 354
228 236 253 221 210 174 164 166 162 163 143 142 162 210 224 256 259 250 242 253 222 166 150 117 88 100 90 114 84 121 163 191 215 177 197 256 317 329 335 337 343 345 352 356 2 356 356 355 360 5 4 6 12 13
226 240 235 209 171 154 148 157 160 151 135 173 219 259 232 272 257 239 234 237 200 170 158 124 117 126 106 132 163 181 172 190 148 203 222 314 336 337 334 341 346 352 359 6 6 7 9 6 8 7 10 13 15 21
201 185 198 167 150 145 146 143 149 212 192 213 229 241 259 280 274 292 296 197 170 161 165 141 132 104 124 133 163 196 192 148 178 198 296 340 333 334 342 346 354 5 16 19 19 17 21 18 26 24 32 29 26 26
155 141 140 147 145 144 142 146 153 180 224 229 247 261 249 282 302 7 354 175 161 177 155 133 129 151 155 170 183 180 185 174 200 305 341 335 338 340 341 358 2 46 33 34 30 27 34 36 38 39 43 43 42 45
167 148 150 146 148 139 139 178 176 204 226 244 271 291 289 305 348 41 78 162 188 160 114 125 112 142 164 189 157 159 170 169 128 359 343 335 343 340 4 12 77 67 50 44 44 43 43 38 34 38 44 47 50 53
158 159 154 155 132 137 133 133 167 200 137 241 294 329 308 11 46 87 100 118 87 121 178 143 136 169 155 155 160 168 174 192 255 322 42 13 8 30 30 84 106 66 60 57 55 50 51 49 44 40 45 45 46 50
150 165 164 169 79 71 97 147 156 176 318 39 351 313 279 65 132 84 60 124 114 16 352 172 156 145 153 189 222 231 205 212 265 280 269 324 345 30 69 108 104 85 65 65 62 57 55 56 57 58 61 61 61 65
149 157 172 154 72 98 89 127 115 138 134 297 348 236 240 187 150 171 272 275 194 208 241 228 207 183 181 219 236 191 187 235 268 229 262 276 178 115 123 112 114 88 84 80 76 72 71 71 72 69 67 67 66 63
151 135 86 59 59 89 133 158 142 166 143 64 63 272 227 212 189 165 225 211 206 219 235 239 236 232 225 221 188 185 224 192 197 175 167 148 135 134 133 123 113 103 100 99 91 85 83 81 75 73 73 73 71 67
127 104 120 110 109 135 154 176 170 142 166 204 200 247 219 222 174 193 222 210 211 224 245 231 226 217 203 193 191 198 188 183 176 168 161 150 143 138 136 133 124 117 115 111 101 95 92 87 79 76 75 74 69 63
96 66 92 174 224 206 153 156 163 187 224 155 101 284 241 195 203 219 222 218 224 233 241 206 210 209 205 190 185 191 189 170 193 170 170 163 151 137 136 135 137 136 132 124 112 104 99 91 79 72 68 65 62 56
120 179 180 192 164 214 148 210 183 195 202 207 236 267 257 184 185 242 213 220 217 211 211 201 201 194 187 185 198 193 186 190 182 180 176 165 165 149 142 145 150 152 148 141 131 119 102 86 77 67 53 41 33 29
104 147 175 205 183 225 252 230 153 137 142 247 249 224 197 205 220 241 223 192 192 192 194 185 182 178 185 181 175 177 173 177 182 194 176 161 164 163 149 146 156 160 165 181 321 346 347 345 354 1 8 24 36 25
209 182 187 176 204 235 297 260 191 164 197 235 238 198 213 239 230 357 100 164 174 186 187 180 179 181 181 174 179 173 171 174 165 157 163 159 161 164 166 174 199 227 246 262 277 313 11 29 40 46 47 53 36 36
233 208 171 183 203 221 237 277 244 212 248 245 263 168 169 31 8 17 302 197 171 165 169 171 170 169 164 167 182 188 180 177 170 161 159 167 179 188 195 193 174 190 102 112 106 159 110 54 59 86 73 49 46 47
238 186 196 183 208 198 208 216 267 311 289 289 324 70 68 58 81 97 76 94 134 143 142 152 150 152 154 155 151 156 173 177 189 179 172 171 170 167 164 176 180 160 177 195 190 160 156 66 69 100 76 61 56 46
162 191 246 205 234 209 262 269 279 292 302 249 53 62 76 82 103 94 109 137 139 155 151 147 148 153 161 147 119 124 169 177 175 182 176 165 172 171 169 183 195 181 202 268 221 216 186 139 100 128 134 18 5 355
185 205 217 185 266 274 283 287 314 298 7 173 165 110 85 101 113 130 144 179 125 127 148 170 158 145 144 134 117 111 129 158 162 163 154 164 169 158 142 8 240 228 224 289 248 244 230 215 191 170 163 347 346 344
169 186 199 250 233 224 206 223 236 298 264 75 170 185 180 162 106 132 167 177 178 157 149 129 141 153 157 143 129 130 130 154 175 191 199 200 211 251 260 280 220 219 230 219 151 232 260 273 253 243 278 309 332 328
Wind_Speed_850mb
42 36 32 30 30 25 22 21 20 24 21 15 15 16 18 18 18 15 10 16 1 3 5 7 7 5 5 3 3 4 5 2 4 4 4 5 5 4 4 1 1 1 3 4 3 6 10 6 4 5 12 8 8 15
36 29 28 28 25 23 21 21 22 22 20 13 12 13 13 16 17 12 12 17 7 4 5 10 10 10 11 9 4 3 2 3 4 6 3 5 5 5 2 5 2 5 3 3 7 4 2 2 6 10 11 18 25 26
30 21 21 19 19 19 19 22 23 21 20 13 12 10 10 13 17 10 14 12 8 6 9 12 11 13 12 8 4 2 4 7 6 7 8 4 3 3 5 3 3 4 3 3 5 3 9 12 12 11 17 25 34 40
20 11 16 21 21 21 19 22 19 19 19 14 12 9 6 9 12 5 10 22 7 6 4 6 13 11 9 10 7 3 8 14 16 10 7 4 2 3 2 4 3 5 6 1 7 12 16 20 18 17 29 38 44 50
18 24 26 26 24 25 25 22 19 20 18 16 13 9 6 4 6 3 2 9 15 4 1 8 13 10 10 11 11 16 14 16 9 6 4 4 5 4 4 2 4 6 2 7 10 20 16 27 30 31 43 53 56 58
23 24 30 33 31 31 31 29 24 23 21 18 15 10 8 4 3 2 1 1 10 9 1 6 8 16 15 12 13 16 17 15 10 6 7 6 5 1 2 2 1 2 4 10 11 20 28 41 51 53 45 55 61 63
23 24 25 35 36 33 25 31 32 30 23 19 17 11 9 7 5 4 4 2 7 8 1 4 7 10 19 12 9 8 9 10 8 6 5 5 4 2 1 3 3 7 17 18 22 29 34 31 47 58 60 63 60 60
22 23 23 20 19 23 26 28 25 27 24 19 17 12 9 7 7 6 9 6 6 2 1 3 4 8 14 7 5 5 5 5 7 5 5 4 5 0 5 9 12 14 17 21 24 29 38 50 57 57 56 58 61 64
21 22 21 18 18 23 26 23 20 19 20 17 14 10 7 8 8 9 10 7 7 5 2 3 8 7 11 6 7 5 5 4 2 3 4 1 3 6 6 9 8 12 17 29 42 46 46 46 55 58 60 61 63 70
18 19 17 17 16 16 17 17 14 16 17 17 15 9 8 11 13 8 4 3 5 6 7 5 6 6 9 6 5 4 5 3 3 4 1 2 4 11 12 11 17 21 28 37 38 45 52 53 54 56 57 57 60 64
17 18 17 16 15 13 16 14 18 20 20 18 12 8 12 16 8 5 4 4 4 5 9 6 12 8 6 4 6 4 5 2 5 4 3 3 3 6 1 12 19 25 33 41 39 44 41 44 51 58 63 65 68 69
15 14 14 14 12 11 14 22 26 25 20 19 11 14 13 7 4 5 4 3 7 5 10 10 10 6 8 7 7 4 4 3 3 4 4 3 4 7 9 21 29 34 40 42 40 43 48 47 45 51 59 66 67 67
15 12 11 11 12 12 17 28 29 29 22 17 8 8 6 6 4 9 13 6 5 13 15 14 10 8 8 7 10 4 5 3 7 4 3 5 5 6 13 25 33 38 38 38 37 42 41 49 57 59 62 62 62 65
14 13 10 10 10 11 23 30 32 30 12 7 7 1 7 7 7 8 6 3 3 9 27 24 12 5 6 5 4 5 4 6 5 5 4 1 5 15 24 25 33 37 37 32 38 37 44 52 53 59 62 60 57 55
14 12 11 9 9 15 30 32 34 27 7 4 5 6 8 6 9 7 8 7 4 17 33 19 13 7 5 6 2 6 7 6 5 4 2 3 11 24 24 28 32 32 28 30 33 37 49 51 55 57 53 52 49 54
12 9 5 12 17 29 30 29 32 12 5 4 5 4 7 6 4 3 8 12 16 31 27 10 7 5 4 6 7 6 8 6 6 4 4 10 18 19 24 27 28 23 22 25 32 40 45 47 52 51 47 48 50 48
8 7 1 13 36 38 35 29 18 5 5 5 6 11 11 12 11 6 4 5 27 28 11 7 7 4 9 5 6 5 5 7 8 7 5 13 20 20 22 25 19 18 17 24 30 38 42 46 54 57 58 54 50 47
12 9 6 40 43 40 24 10 8 10 7 8 5 1 4 9 11 5 2 17 25 20 14 5 13 6 7 9 5 7 10 12 7 2 6 15 14 16 19 15 15 13 15 22 29 34 38 48 61 61 56 57 60 60
18 14 38 42 42 14 9 11 5 5 6 4 6 7 5 7 3 7 12 16 17 19 12 6 6 4 5 6 10 17 18 12 4 4 10 8 12 15 9 11 11 15 18 25 28 34 36 39 41 44 53 57 58 62
20 32 44 47 18 6 5 5 8 2 0 2 3 4 3 3 5 8 14 10 14 11 9 2 4 8 12 21 18 14 12 8 2 5 2 4 10 9 9 8 12 15 17 23 26 30 35 35 36 37 40 45 50 57
24 37 41 41 2 5 6 6 4 3 1 1 2 3 2 3 3 7 9 12 7 4 2 4 13 24 19 11 9 12 16 11 6 7 3 3 7 6 8 11 11 15 18 23 26 28 34 37 38 38 43 49 53 57
29 32 30 11 4 3 4 4 4 4 1 2 2 1 2 5 5 9 10 5 7 15 12 11 13 12 13 12 10 11 13 8 10 7 5 4 3 4 12 14 16 20 25 31 32 34 35 34 39 42 44 49 54 60
28 15 9 5 5 3 3 9 2 3 1 1 1 2 4 5 9 16 6 11 12 22 27 27 26 24 18 13 16 15 9 8 6 7 7 9 9 14 17 22 20 26 33 35 36 38 42 44 46 48 48 51 55 59
26 6 4 4 1 3 7 5 5 1 2 3 4 3 5 7 10 11 7 12 23 21 18 26 25 23 22 22 22 15 14 11 11 10 13 12 16 18 20 23 24 28 32 33 34 35 36 38 40 42 43 42 41 44
9 4 3 2 5 4 3 6 7 5 4 3 3 5 7 11 8 7 7 12 33 33 25 25 27 26 28 30 23 20 17 10 12 9 20 19 20 27 28 28 30 29 26 23 24 25 25 25 26 28 30 31 31 31
6 8 9 7 5 2 3 3 7 7 4 4 6 8 5 2 2 8 7 21 31 35 27 34 34 27 26 24 18 22 20 18 19 16 22 20 24 31 38 35 30 24 20 15 10 8 8 10 12 15 18 22 24 22
4 4 5 5 3 2 5 6 3 5 2 4 3 5 7 9 9 3 3 7 15 25 24 25 31 29 23 21 21 22 21 17 15 16 23 27 27 34 33 28 22 16 11 4 2 7 10 10 7 9 15 20 19 26
3 8 7 13 7 5 6 4 6 6 5 13 7 8 5 4 1 2 0 7 13 24 27 29 27 22 21 25 24 23 17 11 17 23 29 37 37 33 24 17 11 10 11 11 12 12 12 13 10 10 13 14 16 25
5 6 11 8 7 8 6 4 4 10 10 6 3 2 1 3 6 5 3 8 17 26 31 32 29 29 33 34 27 22 20 20 29 33 36 31 34 28 21 12 14 3 5 11 6 3 6 8 9 11 15 16 19 16
6 17 10 13 7 9 16 14 10 15 7 3 1 3 6 9 10 21 27 17 19 24 28 31 33 33 30 27 21 16 18 21 28 25 37 32 27 21 15 18 12 9 5 9 9 7 8 3 9 10 9 13 14 14
8 16 5 9 4 3 7 9 15 8 3 1 5 10 9 8 16 9 19 10 1 20 32 31 32 27 22 16 11 6 13 20 30 32 28 26 20 16 11 10 11 10 4 5 8 10 8 4 6 6 3 4 10 15
19 13 6 3 3 7 10 4 3 1 1 1 1 4 5 5 7 6 18 13 9 22 25 21 23 25 22 14 9 11 12 29 34 34 28 19 13 11 12 1 20 17 7 5 10 10 11 8 5 7 2 4 9 19
8 8 5 2 3 4 7 3 1 1 1 1 2 4 3 3 5 8 26 21 16 19 19 17 17 21 23 15 14 17 16 19 23 21 17 21 28 27 25 23 17 25 18 5 7 3 6 9 13 10 6 9 14 21
Wind_Direction_850mb
288 286 275 272 275 272 270 277 288 307 311 311 334 350 357 359 0 3 354 4 55 87 99 91 84 103 107 86 170 139 161 111 91 125 187 157 203 120 185 113 233 264 229 185 167 246 255 31 118 305 349 296 259 294
282 280 267 263 266 264 266 271 277 296 305 287 314 341 352 1 1 6 360 355 168 139 122 115 111 95 83 73 104 129 85 109 141 112 171 142 161 176 178 195 145 219 303 347 246 359 17 334 56 343 309 286 286 283
277 272 255 260 263 266 268 270 269 281 300 271 291 322 339 355 4 15 19 17 140 120 118 118 113 101 91 73 50 187 178 150 134 129 132 106 150 190 188 190 204 154 157 269 279 142 250 250 261 288 320 295 297 293
268 244 240 252 261 264 270 275 271 270 293 258 269 295 319 345 6 39 34 33 101 129 137 160 138 114 90 54 34 161 181 141 128 99 83 92 100 214 121 62 283 29 177 221 266 271 293 276 254 286 303 302 297 295
272 237 236 249 260 261 268 272 264 265 280 258 252 269 283 313 349 9 0 27 41 119 127 143 146 130 108 84 87 100 121 131 112 91 81 87 97 161 89 205 228 188 101 290 302 307 278 279 283 299 301 302 301 298
278 255 250 247 253 259 263 267 258 255 266 253 238 245 263 246 284 344 341 285 19 30 76 158 155 153 140 119 113 105 105 102 99 93 90 96 104 353 194 238 93 236 316 283 286 306 289 290 299 305 300 302 303 299
277 285 268 253 250 255 261 260 257 248 254 239 229 229 248 239 222 196 163 171 348 5 54 122 137 156 165 153 139 111 93 86 75 93 77 102 113 42 134 245 201 308 323 325 332 322 308 309 303 307 307 306 306 300
269 279 284 281 262 245 247 257 259 253 238 229 215 223 229 226 226 202 199 205 310 345 100 148 121 150 165 151 118 135 123 113 55 87 93 91 129 194 227 239 275 308 322 323 322 313 301 310 312 310 310 310 308 306
267 274 280 277 269 250 250 255 252 238 218 209 197 200 193 178 172 186 191 253 258 204 198 202 173 164 153 109 108 85 108 106 82 108 87 247 147 222 214 239 284 324 319 314 321 321 320 316 314 317 318 316 312 308
264 276 276 274 271 261 239 237 226 199 191 179 170 162 174 175 163 179 230 200 190 205 211 230 166 141 148 133 97 131 51 78 172 76 105 257 256 262 253 288 308 310 316 325 323 324 322 320 322 319 315 310 312 312
256 273 276 270 267 257 226 210 174 161 162 160 161 158 157 158 173 183 192 201 185 219 204 199 188 135 141 140 112 47 112 94 193 119 266 193 242 240 140 335 332 330 327 328 324 323 323 319 320 320 326 331 327 324
248 264 269 260 258 250 209 178 164 161 155 162 146 129 147 170 167 198 195 180 218 219 180 166 163 131 123 109 108 92 109 182 159 143 222 213 255 259 309 332 336 339 335 333 337 335 334 333 331 330 333 333 332 330
234 248 262 257 242 237 188 172 168 154 147 145 157 154 159 164 150 203 183 192 214 175 167 158 138 130 109 101 85 142 152 138 136 193 224 234 271 332 334 333 335 341 342 345 343 346 350 345 350 349 344 343 341 340
234 239 250 254 230 207 173 169 163 157 154 152 160 65 206 182 231 201 202 166 154 168 156 148 115 112 106 94 118 141 94 169 172 200 205 199 297 325 332 335 338 342 348 350 352 355 353 352 351 1 359 355 352 354
228 236 253 221 210 174 164 166 162 163 143 142 162 210 224 256 259 250 242 253 222 166 150 117 88 100 90 114 84 121 163 191 215 177 197 256 317 329 335 337 343 345 352 356 2 356 356 355 360 5 4 6 12 13
226 240 235 209 171 154 148 157 160 151 135 173 219 259 232 272 257 239 234 237 200 170 158 124 117 126 106 132 163 181 172 190 148 203 222 314 336 337 334 341 346 352 359 6 6 7 9 6 8 7 10 13 15 21
201 185 198 167 150 145 146 143 149 212 192 213 229 241 259 280 274 292 296 197 170 161 165 141 132 104 124 133 163 196 192 148 178 198 296 340 333 334 342 346 354 5 16 19 19 17 21 18 26 24 32 29 26 26
155 141 140 147 145 144 142 146 153 180 224 229 247 261 249 282 302 7 354 175 161 177 155 133 129 151 155 170 183 180 185 174 200 305 341 335 338 340 341 358 2 46 33 34 30 27 34 36 38 39 43 43 42 45
167 148 150 146 148 139 139 178 176 204 226 244 271 291 289 305 348 41 78 162 188 160 114 125 112 142 164 189 157 159 170 169 128 359 343 335 343 340 4 12 77 67 50 44 44 43 43 38 34 38 44 47 50 53
158 159 154 155 132 137 133 133 167 200 137 241 294 329 308 11 46 87 100 118 87 121 178 143 136 169 155 155 160 168 174 192 255 322 42 13 8 30 30 84 106 66 60 57 55 50 51 49 44 40 45 45 46 50
150 165 164 169 79 71 97 147 156 176 318 39 351 313 279 65 132 84 60 124 114 16 352 172 156 145 153 189 222 231 205 212 265 280 269 324 345 30 69 108 104 85 65 65 62 57 55 56 57 58 61 61 61 65
149 157 172 154 72 98 89 127 115 138 134 297 348 236 240 187 150 171 272 275 194 208 241 228 207 183 181 219 236 191 187 235 268 229 262 276 178 115 123 112 114 88 84 80 76 72 71 71 72 69 67 67 66 63
151 135 86 59 59 89 133 158 142 166 143 64 63 272 227 212 189 165 225 211 206 219 235 239 236 232 225 221 188 185 224 192 197 175 167 148 135 134 133 123 113 103 100 99 91 85 83 81 75 73 73 73 71 67
127 104 120 110 109 135 154 176 170 142 166 204 200 247 219 222 174 193 222 210 211 224 245 231 226 217 203 193 191 198 188 183 176 168 161 150 143 138 136 133 124 117 115 111 101 95 92 87 79 76 75 74 69 63
96 66 92 174 224 206 153 156 163 187 224 155 101 284 241 195 203 219 222 218 224 233 241 206 210 209 205 190 185 191 189 170 193 170 170 163 151 137 136 135 137 136 132 124 112 104 99 91 79 72 68 65 62 56
120 179 180 192 164 214 148 210 183 195 202 207 236 267 257 184 185 242 213 220 217 211 211 201 201 194 187 185 198 193 186 190 182 180 176 165 165 149 142 145 150 152 148 141 131 119 102 86 77 67 53 41 33 29
104 147 175 205 183 225 252 230 153 137 142 247 249 224 197 205 220 241 223 192 192 192 194 185 182 178 185 181 175 177 173 177 182 194 176 161 164 163 149 146 156 160 165 181 321 346 347 345 354 1 8 24 36 25
209 182 187 176 204 235 297 260 191 164 197 235 238 198 213 239 230 357 100 164 174 186 187 180 179 181 181 174 179 173 171 174 165 157 163 159 161 164 166 174 199 227 246 262 277 313 11 29 40 46 47 53 36 36
233 208 171 183 203 221 237 277 244 212 248 245 263 168 169 31 8 17 302 197 171 165 169 171 170 169 164 167 182 188 180 177 170 161 159 167 179 188 195 193 174 190 102 112 106 159 110 54 59 86 73 49 46 47
238 186 196 183 208 198 208 216 267 311 289 289 324 70 68 58 81 97 76 94 134 143 142 152 150 152 154 155 151 156 173 177 189 179 172 171 170 167 164 176 180 160 177 195 190 160 156 66 69 100 76 61 56 46
162 191 246 205 234 209 262 269 279 292 302 249 53 62 76 82 103 94 109 137 139 155 151 147 148 153 161 147 119 124 169 177 175 182 176 165 172 171 169 183 195 181 202 268 221 216 186 139 100 128 134 18 5 355
185 205 217 185 266 274 283 287 314 298 7 173 165 110 85 101 113 130 144 179 125 127 148 170 158 145 144 134 117 111 129 158 162 163 154 164 169 158 142 8 240 228 224 289 248 244 230 215 191 170 163 347 346 344
169 186 199 250 233 224 206 223 236 298 264 75 170 185 180 162 106 132 167 177 178 157 149 129 141 153 157 143 129 130 130 154 175 191 199 200 211 251 260 280 220 219 230 219 151 232 260 273 253 243 278 309 332 328